Regional Weather Roundup
Issued by NWS

Home | Current Version | Previous Version | Graphics & Text | Print | Product List | Glossary On
Versions: 1 2 3 4 5 6 7 8 9 10 11 12 13 14 15 16 17 18 19 20 21 22 23 24 25 26 27
000
ASUS45 KBOU 222207
RWRCO

WEATHER ROUNDUP FOR COLORADO
NATIONAL WEATHER SERVICE DENVER/BOULDER CO
400 PM MDT SUN OCT 22 2017

NOTE: "FAIR" INDICATES FEW OR NO CLOUDS BELOW 12000 FEET WITH NO
SIGNIFICANT WEATHER AND/OR OBSTRUCTIONS TO VISIBILITY.

COZ001>005-013-030-031-222300-
...NORTHWEST COLORADO...

CITY           SKY/WX    TMP DP  RH WIND       PRES   REMARKS
CRAIG          FAIR      59  29  31 SW13      30.33S
HAYDEN         FAIR      56  29  35 W12       30.36S
MEEKER         FAIR      61  26  26 SW13      30.34F
RABBIT EARS PA FAIR      34  30  86 W10G16    30.44S WCI  26
STEAMBOAT SPGS FAIR      51  27  39 CALM      30.35F
WALDEN         NOT AVBL
$$

COZ006>008-011-222300-
...WEST CENTRAL VALLEYS...

CITY           SKY/WX    TMP DP  RH WIND       PRES   REMARKS
GRAND JUNCTION FAIR      62  18  18 NW5       30.35F
MONTROSE       FAIR      61  24  24 CALM      30.39F
EAGLE          FAIR      59  26  28 SW17      30.37F
RIFLE          FAIR      60  22  23 W3        30.36F
DELTA          FAIR      64  20  18 CALM      30.37F
NUCLA          FAIR      63  19  19 NW5       30.44S
$$

COZ017>023-064>068-222300-
...SOUTHWEST COLORADO...

CITY           SKY/WX    TMP DP  RH WIND       PRES   REMARKS
DURANGO        FAIR      62  19  19 S10       30.38F
CORTEZ         FAIR      64  15  15 W16G23    30.38F
PAGOSA SPRINGS FAIR      58  10  14 W7        30.43S
TELLURIDE      NOT AVBL
WOLF CREEK PAS NOT AVBL
$$

COZ009-010-012-014-032>034-037-058>063-222300-
...CENTRAL COLORADO...

CITY           SKY/WX    TMP DP  RH WIND       PRES   REMARKS
ASPEN          FAIR      55  24  30 N3        30.40F
BUENA VISTA    FAIR      62  14  15 NW18      30.31S
COPPER MTN     FAIR      41  18  38 NW18G28   30.53F
BERTHOUD PASS  FAIR      32  21  64 W45G68    30.45F WCI  15
COTTONWOOD PAS FAIR      59  16  18 SW18G29   30.41S
GUNNISON       FAIR      58  24  27 SW20G26   30.40R
KREMMLING      FAIR      63  23  22 SW12G17   30.36S
LEADVILLE      FAIR      47  16  29 N12G23    30.45F
MONARCH PASS   FAIR      37  21  52 W39G47    30.64R
SALIDA         FAIR      65  21  19 W14G25    30.38R
SUNLIGHT       FAIR      39  27  60 SW13G25   30.55S
WILKERSON PASS FAIR      45  14  29 NW12G26   30.48F
$$

COZ069>075-222300-
...SAN LUIS VALLEY/SANGRE DE CRISTO MOUNTAINS...

CITY           SKY/WX    TMP DP  RH WIND       PRES   REMARKS
ALAMOSA        FAIR      57  17  21 VRB3      30.36F
DEL NORTE      FAIR      57  19  22 E6        30.38F
LA VETA PASS   FAIR      46  19  34 S33G45    30.50F
SAGUACHE       FAIR      61  21  21 NW8       30.38S
$$

COZ035-036-038>040-222300-
...NORTHERN COLORADO FRONT RANGE...

CITY           SKY/WX    TMP DP  RH WIND       PRES   REMARKS
DENVER INTL AP PTSUNNY   67  22  18 W12       30.09F
DMNS CITY PARK   N/A     66  16  14 N13       30.10F
AURORA         PTSUNNY   65  19  17 W14       30.12F
FRONT RANGE AP NOT AVBL
ERIE MUNI ARPT FAIR      65  21  18 W8        30.13S
BOULDER MUN AP FAIR      66  21  18 CALM      30.10R
CENTENNIAL     PTSUNNY   64  21  19 N8        30.13F
BROOMFIELD     PTSUNNY   64  23  20 W14       30.13S
FORT COLLINS   FAIR      69  29  22 E5        30.08S
LONGMONT       FAIR      68  22  17 SW10      30.10R
$$

COZ041-046-047-076>085-087-088-222300-
...PIKES PEAK/PALMER DIVIDE AND SOUTHERN FOOTHILLS...

CITY           SKY/WX    TMP DP  RH WIND       PRES   REMARKS
COLO. SPRINGS  PTSUNNY   65  25  22 S8        30.18R
A. F. ACADEMY  FAIR      64  22  20 S3        30.18R
SCHRIEVER AFB  FAIR      62  21  21 SW7       30.18R
CHEYENNE MTN   PTSUNNY   60  27  28 S7        30.15R
ELLICOTT         N/A    N/A N/A N/A SW7       30.16R
FALCON         FAIR      61  21  22 SW7       30.22R
FORT CARSON    FAIR      66  24  20 CALM      30.15R
LIMON          FAIR      70  26  19 W12       30.11S
MONUMENT HILL  FAIR      59  21  23 N9        30.22S
CANON CITY     FAIR      75  27  16 W14       30.11R
WALSENBURG     NOT AVBL
TRINIDAD       FAIR      69  23  17 SE6       30.17F
$$

COZ042>045-048>051-090-091-222300-
...NORTHEAST COLORADO...

CITY           SKY/WX    TMP DP  RH WIND       PRES   REMARKS
GREELEY ARPT   FAIR      68  28  22 CALM      30.08R
AKRON          FAIR      69  24  18 W13       30.07F
BURLINGTON     FAIR      68  20  16 SW16      30.10R
WRAY           NOT AVBL
YUMA           NOT AVBL
STERLING       NOT AVBL
HOLYOKE        FAIR      73  27  17 W13G20    30.03F
FORT MORGAN    FAIR      69  20  15 W8G16     30.08R
$$

COZ086-089-092>099-222300-
...SOUTHEAST COLORADO...

CITY           SKY/WX    TMP DP  RH WIND       PRES   REMARKS
PUEBLO         FAIR      74  25  16 N6        30.08S
LA JUNTA       FAIR      72  22  15 W7        30.09F
LAMAR          FAIR      71  23  16 SW13      30.06F
SPRINGFIELD      N/A     68  25  19 S12       30.12F
$$




USA.gov is the U.S. government's official web portal to all federal, state and local government web resources and services.